| time (UTC) | temp C | wind direction | speed KPH | gust KPH | rain 1hr cm | rain 24hr cm | rain mn cm | humidity % | barometer mb |
| 20260503072540 | 18 | 43 | 0.0 | 4.8 | 0.00 | 0.00 | 0.00 | 58 | 1020.1 |
| 20260503072038 | 17 | 0 | 0.0 | 4.8 | 0.00 | 0.00 | 0.00 | 59 | 1020.2 |
| 20260503071553 | 17 | 297 | 0.0 | 4.8 | 0.00 | 0.00 | 0.00 | 61 | 1020.1 |
| 20260503071037 | 17 | 352 | 1.6 | 4.8 | 0.00 | 0.00 | 0.00 | 63 | 1020.1 |
| 20260503070540 | 16 | 40 | 0.0 | 4.8 | 0.00 | 0.00 | 0.00 | 64 | 1020.1 |
| 20260503060109 | 14 | 40 | 1.6 | 6.4 | 0.00 | 0.00 | 0.00 | 70 | 1019.9 |
| 20260503055037 | 13 | 25 | 1.6 | 8.0 | 0.00 | 0.00 | 0.00 | 72 | 1019.9 |
| 20260503054550 | 13 | 348 | 1.6 | 9.7 | 0.00 | 0.00 | 0.00 | 72 | 1019.9 |
| 20260503054038 | 13 | 333 | 4.8 | 9.7 | 0.00 | 0.00 | 0.00 | 73 | 1019.9 |
| 20260503053536 | 12 | 302 | 3.2 | 6.4 | 0.00 | 0.00 | 0.00 | 74 | 1019.9 |
| 20260503053048 | 12 | 342 | 1.6 | 6.4 | 0.00 | 0.00 | 0.00 | 75 | 1019.9 |
| 20260503052536 | 12 | 332 | 3.2 | 6.4 | 0.00 | 0.00 | 0.00 | 75 | 1019.9 |
| 20260503052037 | 12 | 337 | 1.6 | 6.4 | 0.00 | 0.00 | 0.00 | 75 | 1019.8 |
| 20260503051549 | 12 | 326 | 3.2 | 6.4 | 0.00 | 0.00 | 0.00 | 76 | 1019.7 |
| 20260503051040 | 11 | 349 | 1.6 | 4.8 | 0.00 | 0.00 | 0.00 | 76 | 1019.8 |
| 20260503050537 | 11 | 345 | 0.0 | 4.8 | 0.00 | 0.00 | 0.00 | 77 | 1019.8 |
| 20260503050050 | 11 | 0 | 0.0 | 4.8 | 0.00 | 0.00 | 0.00 | 77 | 1019.8 |
| 20260503045539 | 11 | 345 | 1.6 | 4.8 | 0.00 | 0.00 | 0.00 | 77 | 1019.8 |
| 20260503045037 | 11 | 350 | 1.6 | 4.8 | 0.00 | 0.00 | 0.00 | 77 | 1019.8 |
| 20260503044545 | 11 | 352 | 1.6 | 4.8 | 0.00 | 0.00 | 0.00 | 77 | 1019.7 |
| 20260503044041 | 11 | 334 | 0.0 | 4.8 | 0.00 | 0.00 | 0.00 | 78 | 1019.8 |
| 20260503043536 | 11 | 309 | 3.2 | 6.4 | 0.00 | 0.00 | 0.00 | 77 | 1019.8 |
| 20260503043050 | 11 | 321 | 3.2 | 6.4 | 0.00 | 0.00 | 0.00 | 78 | 1019.8 |
| 20260503042536 | 11 | 302 | 1.6 | 4.8 | 0.00 | 0.00 | 0.00 | 78 | 1019.8 |
| 20260503042036 | 11 | 305 | 0.0 | 3.2 | 0.00 | 0.00 | 0.00 | 78 | 1019.6 |
| 20260503041546 | 11 | 340 | 0.0 | 3.2 | 0.00 | 0.00 | 0.00 | 78 | 1019.6 |
| 20260503041040 | 11 | 0 | 0.0 | 4.8 | 0.00 | 0.00 | 0.00 | 78 | 1019.6 |
| 20260503040537 | 11 | 0 | 0.0 | 4.8 | 0.00 | 0.00 | 0.00 | 78 | 1019.6 |
| 20260503040056 | 11 | 346 | 1.6 | 4.8 | 0.00 | 0.00 | 0.00 | 79 | 1019.6 |
| 20260503035540 | 11 | 332 | 3.2 | 4.8 | 0.00 | 0.00 | 0.00 | 79 | 1019.6 |
| 20260503035040 | 11 | 326 | 3.2 | 4.8 | 0.00 | 0.00 | 0.00 | 80 | 1019.7 |
| 20260503034549 | 11 | 335 | 1.6 | 4.8 | 0.00 | 0.00 | 0.00 | 79 | 1019.7 |
| 20260503034250 | 11 | 311 | 0.0 | 3.2 | 0.00 | 0.00 | 0.00 | 79 | 1019.7 |
| 20260503033906 | 11 | 0 | 0.0 | 3.2 | 0.00 | 0.00 | 0.00 | 79 | 1019.7 |
| 20260503033049 | 11 | 289 | 0.0 | 1.6 | 0.00 | 0.00 | 0.00 | 79 | 1019.7 |
| 20260503032537 | 11 | 0 | 0.0 | 1.6 | 0.00 | 0.00 | 0.00 | 78 | 1019.7 |
| 20260503032037 | 11 | 289 | 0.0 | 1.6 | 0.00 | 0.00 | 0.00 | 78 | 1019.7 |
| 20260503031545 | 11 | 0 | 0.0 | 0.0 | 0.00 | 0.00 | 0.00 | 77 | 1019.7 |
| 20260503031037 | 11 | 0 | 0.0 | 1.6 | 0.00 | 0.00 | 0.00 | 77 | 1019.7 |
| 20260503030537 | 11 | 0 | 0.0 | 1.6 | 0.00 | 0.00 | 0.00 | 77 | 1019.8 |
| 20260503030047 | 11 | 0 | 0.0 | 0.0 | 0.00 | 0.00 | 0.00 | 77 | 1019.8 |
| 20260503025536 | 11 | 0 | 0.0 | 0.0 | 0.00 | 0.00 | 0.00 | 76 | 1019.7 |
| 20260503025038 | 11 | 0 | 0.0 | 0.0 | 0.00 | 0.00 | 0.00 | 76 | 1019.7 |
| 20260503024548 | 11 | 0 | 0.0 | 0.0 | 0.00 | 0.00 | 0.00 | 76 | 1019.8 |
| 20260503024036 | 11 | 0 | 0.0 | 0.0 | 0.00 | 0.00 | 0.00 | 75 | 1019.8 |
| 20260503023537 | 11 | 0 | 0.0 | 0.0 | 0.00 | 0.00 | 0.00 | 75 | 1019.8 |
| 20260503023052 | 11 | 0 | 0.0 | 0.0 | 0.00 | 0.00 | 0.00 | 74 | 1019.8 |
| 20260503022536 | 12 | 0 | 0.0 | 0.0 | 0.00 | 0.00 | 0.00 | 74 | 1019.8 |
| 20260503022037 | 12 | 0 | 0.0 | 0.0 | 0.00 | 0.00 | 0.00 | 74 | 1019.9 |
| 20260503021551 | 12 | 0 | 0.0 | 0.0 | 0.00 | 0.00 | 0.00 | 73 | 1019.9 |
| 20260503021037 | 12 | 0 | 0.0 | 0.0 | 0.00 | 0.00 | 0.00 | 73 | 1019.9 |
| 20260503020537 | 12 | 0 | 0.0 | 0.0 | 0.00 | 0.00 | 0.00 | 73 | 1019.9 |
| 20260503020049 | 12 | 0 | 0.0 | 0.0 | 0.00 | 0.00 | 0.00 | 73 | 1020.0 |
| 20260503015536 | 12 | 0 | 0.0 | 0.0 | 0.00 | 0.00 | 0.00 | 72 | 1019.9 |
| 20260503015036 | 12 | 0 | 0.0 | 1.6 | 0.00 | 0.00 | 0.00 | 72 | 1019.9 |
| 20260503014543 | 12 | 0 | 0.0 | 1.6 | 0.00 | 0.00 | 0.00 | 72 | 1019.9 |
| 20260503014036 | 12 | 0 | 0.0 | 3.2 | 0.00 | 0.00 | 0.00 | 72 | 1019.9 |
| 20260503013538 | 12 | 0 | 0.0 | 3.2 | 0.00 | 0.00 | 0.00 | 71 | 1019.9 |
| 20260503013047 | 12 | 0 | 0.0 | 3.2 | 0.00 | 0.00 | 0.00 | 71 | 1020.0 |
| 20260503012539 | 12 | 259 | 1.6 | 4.8 | 0.00 | 0.00 | 0.00 | 71 | 1020.0 |
| 20260503012036 | 12 | 338 | 0.0 | 4.8 | 0.00 | 0.00 | 0.00 | 72 | 1020.0 |
| 20260503011546 | 12 | 338 | 1.6 | 4.8 | 0.00 | 0.00 | 0.00 | 71 | 1020.0 |
| 20260503011034 | 12 | 19 | 0.0 | 4.8 | 0.00 | 0.00 | 0.00 | 71 | 1020.0 |
| 20260503010535 | 12 | 15 | 1.6 | 4.8 | 0.00 | 0.00 | 0.00 | 71 | 1020.0 |
| 20260503010048 | 12 | 9 | 1.6 | 4.8 | 0.00 | 0.00 | 0.00 | 71 | 1020.1 |
| 20260503005536 | 12 | 360 | 1.6 | 4.8 | 0.00 | 0.00 | 0.00 | 71 | 1020.0 |
| 20260503005035 | 12 | 347 | 1.6 | 4.8 | 0.00 | 0.00 | 0.00 | 71 | 1020.1 |
| 20260503004610 | 13 | 21 | 1.6 | 4.8 | 0.00 | 0.00 | 0.00 | 71 | 1020.1 |
| 20260503004035 | 13 | 17 | 1.6 | 3.2 | 0.00 | 0.00 | 0.00 | 71 | 1020.2 |
| 20260503003536 | 13 | 12 | 0.0 | 3.2 | 0.00 | 0.00 | 0.00 | 70 | 1020.3 |
| 20260503003100 | 13 | 11 | 1.6 | 4.8 | 0.00 | 0.00 | 0.00 | 70 | 1020.3 |
| 20260503002535 | 13 | 9 | 1.6 | 4.8 | 0.00 | 0.00 | 0.00 | 70 | 1020.4 |
| 20260503002035 | 13 | 5 | 1.6 | 4.8 | 0.00 | 0.00 | 0.00 | 70 | 1020.4 |
| 20260503001605 | 13 | 352 | 1.6 | 3.2 | 0.00 | 0.00 | 0.00 | 69 | 1020.4 |
| 20260503001036 | 13 | 9 | 0.0 | 3.2 | 0.00 | 0.00 | 0.00 | 69 | 1020.5 |
| 20260503000538 | 13 | 9 | 0.0 | 3.2 | 0.00 | 0.00 | 0.00 | 69 | 1020.5 |
| 20260503000051 | 13 | 9 | 1.6 | 4.8 | 0.00 | 0.00 | 0.00 | 68 | 1020.5 |
| 20260502235536 | 13 | 360 | 1.6 | 4.8 | 0.00 | 0.00 | 0.00 | 67 | 1020.6 |
| 20260502235035 | 13 | 352 | 1.6 | 4.8 | 0.00 | 0.00 | 0.00 | 67 | 1020.7 |
| 20260502234547 | 13 | 345 | 1.6 | 4.8 | 0.00 | 0.00 | 0.00 | 67 | 1020.7 |
| 20260502234035 | 13 | 348 | 1.6 | 3.2 | 0.00 | 0.00 | 0.00 | 66 | 1020.8 |
| 20260502233535 | 13 | 352 | 1.6 | 3.2 | 0.00 | 0.00 | 0.00 | 66 | 1020.8 |
| 20260502233047 | 13 | 9 | 0.0 | 3.2 | 0.00 | 0.00 | 0.00 | 66 | 1020.8 |
| 20260502232536 | 14 | 5 | 0.0 | 3.2 | 0.00 | 0.00 | 0.00 | 66 | 1020.8 |
| 20260502232035 | 14 | 0 | 0.0 | 4.8 | 0.00 | 0.00 | 0.00 | 65 | 1020.8 |
| 20260502231548 | 14 | 5 | 1.6 | 4.8 | 0.00 | 0.00 | 0.00 | 65 | 1020.8 |
| 20260502231042 | 14 | 5 | 1.6 | 4.8 | 0.00 | 0.00 | 0.00 | 65 | 1020.9 |
| 20260502230537 | 14 | 31 | 0.0 | 6.4 | 0.00 | 0.00 | 0.00 | 64 | 1020.9 |
| 20260502230048 | 14 | 0 | 0.0 | 6.4 | 0.00 | 0.00 | 0.00 | 64 | 1020.9 |
| 20260502225538 | 14 | 348 | 1.6 | 4.8 | 0.00 | 0.00 | 0.00 | 63 | 1020.9 |
| 20260502225037 | 14 | 352 | 1.6 | 4.8 | 0.00 | 0.00 | 0.00 | 63 | 1021.0 |
| 20260502224546 | 14 | 0 | 0.0 | 4.8 | 0.00 | 0.00 | 0.00 | 63 | 1020.9 |
| 20260502224036 | 15 | 0 | 1.6 | 4.8 | 0.00 | 0.00 | 0.00 | 61 | 1021.0 |
| 20260502223537 | 15 | 15 | 1.6 | 4.8 | 0.00 | 0.00 | 0.00 | 62 | 1021.0 |
| 20260502223047 | 15 | 352 | 1.6 | 4.8 | 0.00 | 0.00 | 0.00 | 61 | 1021.1 |
| 20260502222537 | 15 | 352 | 1.6 | 4.8 | 0.00 | 0.00 | 0.00 | 62 | 1021.1 |
| 20260502222036 | 15 | 350 | 0.0 | 6.4 | 0.00 | 0.00 | 0.00 | 63 | 1021.1 |
| 20260502221550 | 15 | 328 | 3.2 | 6.4 | 0.00 | 0.00 | 0.00 | 63 | 1021.1 |
| 20260502221036 | 15 | 347 | 3.2 | 6.4 | 0.00 | 0.00 | 0.00 | 63 | 1021.0 |
| 20260502220536 | 15 | 11 | 1.6 | 4.8 | 0.00 | 0.00 | 0.00 | 62 | 1021.0 |
| 20260502220049 | 15 | 0 | 0.0 | 1.6 | 0.00 | 0.00 | 0.00 | 62 | 1021.0 |
| 20260502215535 | 15 | 0 | 0.0 | 1.6 | 0.00 | 0.00 | 0.00 | 62 | 1021.0 |
| 20260502215034 | 15 | 165 | 0.0 | 1.6 | 0.00 | 0.00 | 0.00 | 61 | 1021.0 |
| 20260502214547 | 15 | 0 | 0.0 | 1.6 | 0.00 | 0.00 | 0.00 | 61 | 1021.0 |
| 20260502214035 | 15 | 0 | 0.0 | 0.0 | 0.00 | 0.00 | 0.00 | 60 | 1020.9 |
| 20260502213536 | 16 | 0 | 0.0 | 0.0 | 0.00 | 0.00 | 0.00 | 60 | 1020.9 |
| 20260502213101 | 16 | 0 | 0.0 | 0.0 | 0.00 | 0.00 | 0.00 | 60 | 1020.9 |
| 20260502212535 | 16 | 0 | 0.0 | 0.0 | 0.00 | 0.00 | 0.00 | 59 | 1020.9 |
| 20260502212037 | 16 | 0 | 0.0 | 0.0 | 0.00 | 0.00 | 0.00 | 58 | 1020.9 |
| 20260502211547 | 16 | 0 | 0.0 | 0.0 | 0.00 | 0.00 | 0.00 | 57 | 1020.9 |
| 20260502211037 | 16 | 0 | 0.0 | 0.0 | 0.00 | 0.00 | 0.00 | 54 | 1020.8 |
| 20260502210538 | 16 | 0 | 0.0 | 0.0 | 0.00 | 0.00 | 0.00 | 54 | 1020.9 |
| 20260502210046 | 16 | 0 | 0.0 | 0.0 | 0.00 | 0.00 | 0.00 | 53 | 1020.9 |
| 20260502205535 | 16 | 0 | 0.0 | 1.6 | 0.00 | 0.00 | 0.00 | 53 | 1020.8 |
| 20260502205038 | 16 | 0 | 0.0 | 1.6 | 0.00 | 0.00 | 0.00 | 53 | 1021.0 |
| 20260502204548 | 16 | 0 | 0.0 | 0.0 | 0.00 | 0.00 | 0.00 | 48 | 1020.9 |
| 20260502204038 | 16 | 0 | 0.0 | 0.0 | 0.00 | 0.00 | 0.00 | 54 | 1020.8 |
| 20260502203535 | 16 | 0 | 0.0 | 1.6 | 0.00 | 0.00 | 0.00 | 53 | 1020.9 |
| 20260502203050 | 16 | 0 | 0.0 | 1.6 | 0.00 | 0.00 | 0.00 | 51 | 1020.9 |
| 20260502202535 | 16 | 0 | 0.0 | 0.0 | 0.00 | 0.00 | 0.00 | 50 | 1020.9 |
| 20260502202036 | 16 | 0 | 0.0 | 0.0 | 0.00 | 0.00 | 0.00 | 45 | 1020.9 |
| 20260502201544 | 17 | 0 | 0.0 | 4.8 | 0.00 | 0.00 | 0.00 | 50 | 1021.0 |
| 20260502201035 | 17 | 0 | 0.0 | 8.0 | 0.00 | 0.00 | 0.00 | 51 | 1021.0 |
| 20260502200536 | 17 | 165 | 3.2 | 8.0 | 0.00 | 0.00 | 0.00 | 49 | 1021.0 |
| 20260502200107 | 17 | 169 | 1.6 | 6.4 | 0.00 | 0.00 | 0.00 | 50 | 1021.0 |
| 20260502195535 | 18 | 0 | 0.0 | 0.0 | 0.00 | 0.00 | 0.00 | 51 | 1021.0 |
| 20260502195036 | 18 | 0 | 0.0 | 0.0 | 0.00 | 0.00 | 0.00 | 52 | 1021.0 |
| 20260502194604 | 18 | 0 | 0.0 | 0.0 | 0.00 | 0.00 | 0.00 | 52 | 1020.9 |
| 20260502194034 | 18 | 0 | 0.0 | 0.0 | 0.00 | 0.00 | 0.00 | 51 | 1020.9 |
| 20260502193540 | 18 | 0 | 0.0 | 0.0 | 0.00 | 0.00 | 0.00 | 51 | 1020.8 |
| 20260502193047 | 18 | 0 | 0.0 | 0.0 | 0.00 | 0.00 | 0.00 | 51 | 1020.8 |
| 20260502192535 | 19 | 0 | 0.0 | 0.0 | 0.00 | 0.00 | 0.00 | 50 | 1020.8 |
| 20260502192037 | 19 | 0 | 0.0 | 0.0 | 0.00 | 0.00 | 0.00 | 49 | 1020.8 |
| 20260502191549 | 20 | 0 | 0.0 | 0.0 | 0.00 | 0.00 | 0.00 | 48 | 1020.8 |
| 20260502191035 | 20 | 0 | 0.0 | 0.0 | 0.00 | 0.00 | 0.00 | 46 | 1020.8 |
| 20260502190535 | 20 | 0 | 0.0 | 0.0 | 0.00 | 0.00 | 0.00 | 46 | 1020.8 |
| 20260502190049 | 20 | 0 | 0.0 | 0.0 | 0.00 | 0.00 | 0.00 | 44 | 1020.7 |
| 20260502185534 | 20 | 0 | 0.0 | 0.0 | 0.00 | 0.00 | 0.00 | 44 | 1020.6 |
| 20260502185035 | 20 | 0 | 0.0 | 0.0 | 0.00 | 0.00 | 0.00 | 37 | 1020.7 |
| 20260502184547 | 20 | 0 | 0.0 | 0.0 | 0.00 | 0.00 | 0.00 | 42 | 1020.6 |
| 20260502184040 | 21 | 0 | 0.0 | 0.0 | 0.00 | 0.00 | 0.00 | 41 | 1020.6 |
| 20260502183535 | 21 | 0 | 0.0 | 0.0 | 0.00 | 0.00 | 0.00 | 40 | 1020.5 |
| 20260502183049 | 21 | 0 | 0.0 | 0.0 | 0.00 | 0.00 | 0.00 | 39 | 1020.6 |
| 20260502182537 | 21 | 0 | 0.0 | 0.0 | 0.00 | 0.00 | 0.00 | 38 | 1020.6 |
| 20260502182036 | 22 | 0 | 0.0 | 1.6 | 0.00 | 0.00 | 0.00 | 39 | 1020.6 |
| 20260502181548 | 22 | 0 | 0.0 | 3.2 | 0.00 | 0.00 | 0.00 | 37 | 1020.5 |
| 20260502181036 | 22 | 0 | 0.0 | 3.2 | 0.00 | 0.00 | 0.00 | 35 | 1020.4 |
| 20260502180536 | 22 | 190 | 0.0 | 4.8 | 0.00 | 0.00 | 0.00 | 31 | 1020.5 |
| 20260502164037 | 24 | 180 | 1.6 | 9.7 | 0.00 | 0.00 | 0.00 | 30 | 1020.6 |
| 20260502163541 | 24 | 196 | 3.2 | 9.7 | 0.00 | 0.00 | 0.00 | 29 | 1020.6 |
| 20260502163054 | 24 | 211 | 3.2 | 8.0 | 0.00 | 0.00 | 0.00 | 30 | 1020.6 |
| 20260502162538 | 24 | 225 | 1.6 | 9.7 | 0.00 | 0.00 | 0.00 | 30 | 1020.7 |
| 20260502162037 | 24 | 0 | 0.0 | 9.7 | 0.00 | 0.00 | 0.00 | 29 | 1020.8 |
| 20260502161548 | 24 | 281 | 3.2 | 11.3 | 0.00 | 0.00 | 0.00 | 29 | 1020.9 |
| 20260502161037 | 24 | 262 | 3.2 | 11.3 | 0.00 | 0.00 | 0.00 | 29 | 1020.9 |
| 20260502160537 | 24 | 262 | 3.2 | 11.3 | 0.00 | 0.00 | 0.00 | 29 | 1021.0 |
| 20260502152038 | 24 | 244 | 3.2 | 11.3 | 0.00 | 0.00 | 0.00 | 29 | 1021.4 |
| 20260502151552 | 24 | 0 | 1.6 | 12.9 | 0.00 | 0.00 | 0.00 | 29 | 1021.4 |
| 20260502151038 | 24 | 266 | 6.4 | 14.5 | 0.00 | 0.00 | 0.00 | 29 | 1021.4 |
| 20260502150538 | 24 | 272 | 4.8 | 14.5 | 0.00 | 0.00 | 0.00 | 30 | 1021.5 |
| 20260502150123 | 25 | 254 | 9.7 | 16.1 | 0.00 | 0.00 | 0.00 | 24 | 1021.5 |
| 20260502130537 | 23 | 0 | 1.6 | 14.5 | 0.00 | 0.00 | 0.00 | 31 | 1023.3 |
| 20260502123537 | 23 | 279 | 4.8 | 14.5 | 0.00 | 0.00 | 0.00 | 31 | 1023.7 |
| 20260502123047 | 23 | 296 | 6.4 | 14.5 | 0.00 | 0.00 | 0.00 | 31 | 1023.8 |
| 20260502122538 | 22 | 227 | 3.2 | 9.7 | 0.00 | 0.00 | 0.00 | 32 | 1023.8 |
| 20260502122039 | 22 | 352 | 3.2 | 11.3 | 0.00 | 0.00 | 0.00 | 32 | 1023.9 |
| 20260502121558 | 22 | 146 | 4.8 | 11.3 | 0.00 | 0.00 | 0.00 | 32 | 1024.0 |
| 20260502121042 | 22 | 114 | 3.2 | 17.7 | 0.00 | 0.00 | 0.00 | 30 | 1024.0 |
| 20260502120537 | 22 | 298 | 9.7 | 17.7 | 0.00 | 0.00 | 0.00 | 31 | 1024.1 |
| 20260502120107 | 23 | 293 | 3.2 | 16.1 | 0.00 | 0.00 | 0.00 | 32 | 1024.2 |
| 20260502115538 | 23 | 0 | 8.0 | 16.1 | 0.00 | 0.00 | 0.00 | 31 | 1024.2 |
| 20260502115037 | 23 | 268 | 4.8 | 14.5 | 0.00 | 0.00 | 0.00 | 31 | 1024.3 |
| 20260502114554 | 23 | 170 | 4.8 | 14.5 | 0.00 | 0.00 | 0.00 | 33 | 1024.4 |
| 20260502114038 | 22 | 0 | 0.0 | 14.5 | 0.00 | 0.00 | 0.00 | 33 | 1024.4 |
| 20260502113539 | 22 | 116 | 4.8 | 14.5 | 0.00 | 0.00 | 0.00 | 32 | 1024.5 |
| 20260502113104 | 22 | 99 | 4.8 | 14.5 | 0.00 | 0.00 | 0.00 | 33 | 1024.5 |
| 20260502112538 | 22 | 173 | 3.2 | 14.5 | 0.00 | 0.00 | 0.00 | 33 | 1024.5 |
| 20260502112039 | 22 | 257 | 4.8 | 14.5 | 0.00 | 0.00 | 0.00 | 33 | 1024.7 |
| 20260502111547 | 22 | 87 | 1.6 | 14.5 | 0.00 | 0.00 | 0.00 | 33 | 1024.7 |
| 20260502111037 | 22 | 282 | 8.0 | 16.1 | 0.00 | 0.00 | 0.00 | 32 | 1024.8 |
| 20260502110539 | 22 | 184 | 3.2 | 16.1 | 0.00 | 0.00 | 0.00 | 33 | 1024.8 |
| 20260502105538 | 22 | 305 | 6.4 | 11.3 | 0.00 | 0.00 | 0.00 | 32 | 1025.1 |
| 20260502105039 | 22 | 234 | 3.2 | 11.3 | 0.00 | 0.00 | 0.00 | 33 | 1025.2 |
| 20260502104549 | 22 | 179 | 3.2 | 9.7 | 0.00 | 0.00 | 0.00 | 29 | 1025.2 |
| 20260502104037 | 21 | 135 | 1.6 | 11.3 | 0.00 | 0.00 | 0.00 | 34 | 1025.3 |
| 20260502103537 | 21 | 343 | 3.2 | 17.7 | 0.00 | 0.00 | 0.00 | 34 | 1025.4 |
| 20260502103108 | 21 | 313 | 8.0 | 17.7 | 0.00 | 0.00 | 0.00 | 35 | 1025.5 |
| 20260502102537 | 21 | 286 | 3.2 | 8.0 | 0.00 | 0.00 | 0.00 | 30 | 1025.5 |
| 20260502102038 | 21 | 333 | 1.6 | 11.3 | 0.00 | 0.00 | 0.00 | 35 | 1025.5 |
| 20260502101552 | 21 | 180 | 4.8 | 12.9 | 0.00 | 0.00 | 0.00 | 35 | 1025.7 |
| 20260502101037 | 21 | 217 | 3.2 | 12.9 | 0.00 | 0.00 | 0.00 | 37 | 1025.7 |
| 20260502100540 | 21 | 217 | 6.4 | 14.5 | 0.00 | 0.00 | 0.00 | 36 | 1025.7 |
| 20260502091037 | 20 | 184 | 3.2 | 6.4 | 0.00 | 0.00 | 0.00 | 38 | 1026.3 |
| 20260502090536 | 20 | 163 | 0.0 | 6.4 | 0.00 | 0.00 | 0.00 | 38 | 1026.4 |